Regional Weather Roundup
Issued by NWS

Home | Current Version | Previous Version | Graphics & Text | Print | Product List | Glossary On
Versions: 1 2 3 4 5 6 7 8 9 10 11 12 13 14 15 16 17 18 19 20 21 22 23 24 25 26 27 28 29 30 31 32 33 34 35 36 37 38 39 40 41 42 43 44 45 46 47 48 49 50
120
ASUS43 KDMX 292006
RWRIA

WEATHER ROUNDUP FOR IOWA
NATIONAL WEATHER SERVICE DES MOINES IA
300 PM CDT WED MAR 29 2017

NOTE: "FAIR" INDICATES FEW OR NO CLOUDS BELOW 12,000 FEET WITH NO
SIGNIFICANT WEATHER AND/OR OBSTRUCTIONS TO VISIBILITY.

* - THESE STATIONS ARE NOT NWS STATIONS...THUS NOT UNDER NWS
QUALITY CONTROL.  THEY ALSO DO NOT REPORT WEATHER SUCH
AS PRECIPITATION OR FOG.

IAZ001>003-012>014-020>022-031>034-043>046-292100-
   NORTHWEST IOWA

CITY           SKY/WX    TMP DP  RH WIND       PRES   REMARKS
CARROLL *      RAIN      43  41  93 NE22G33   29.94F
CHEROKEE *     LGT RAIN  42  40  94 NE21G32   30.02F
DENISON *      HVY RAIN  41  41 100 NE21G30   29.94F
LE MARS *      LGT RAIN  43  41  93 NE17G24   30.02F
ORANGE CITY *  LGT RAIN  43  39  87 E23G35    30.03F
SHELDON *      MIX PCPN  43  39  87 E22G32    30.04S
SIOUX CITY     LGT RAIN  43  42  97 E22G29    29.98F
SPENCER        LGT RAIN  43  39  86 E23G35    30.06F
STORM LAKE *   LGT RAIN  41  39  93 NE25G36   30.00F
$$

IAZ055>058-069>071-079>083-090>094-292100-
   SOUTHWEST IOWA

CITY           SKY/WX    TMP DP  RH WIND       PRES   REMARKS
ATLANTIC *     LGT RAIN  41  41 100 NE17G29   29.87F
AUDUBON *      RAIN      41  39  93 NE21G26   29.90F
CLARINDA *     CLOUDY    45  45 100 E16       29.83F
COUNCIL BLFS * CLOUDY    41  41 100 NE18G25   29.88F FOG
CRESTON *      CLOUDY    43  43 100 E24       29.84F
HARLAN  *      RAIN      41  41 100 NE20G33   29.93S
LAMONI         CLOUDY    48  46  93 E12       29.80F
RED OAK *      MIX PCPN  43  43 100 NE15      29.85F
SHENANDOAH *   MIX PCPN  45  43  93 NE15G24   29.83F VSB 1/2
$$

IAZ047>049-059>061-072>074-084-292100-
   CENTRAL IOWA

CITY           SKY/WX    TMP DP  RH WIND       PRES   REMARKS
AMES           RAIN      43  43 100 NE20G30   29.95F FOG
ANKENY *       RAIN      43  43 100 NE17G26   29.92F
BOONE *        LGT RAIN  43  43 100 NE25G38   29.91F
CHARITON *     RAIN      46  45  93 E15       29.85F
DES MOINES     RAIN      45  42  89 E18G26    29.89F FOG
GRINNELL*      LGT RAIN  43  42  95 E21       29.97F
MARSHALLTOWN   LGT RAIN  43  41  93 NE25      29.98F FOG
NEWTON *       CLOUDY    45  43  93 E25G32    29.91F FOG
PELLA *        LGT RAIN  45  44  96 E13G25    29.91F
PERRY *        RAIN      43  42  96 NE22G29   29.91F
$$

IAZ004>006-015-016-023>025-035-036-292100-
   NORTH CENTRAL IOWA

CITY           SKY/WX    TMP DP  RH WIND       PRES   REMARKS
ALGONA *       LGT RAIN  41  41 100 E24G32    30.08S
CLARION *      CLOUDY    41  41 100 E30G41    30.05R FOG
ESTHERVILLE    LGT RAIN  43  39  86 E24G33    30.09F
FORT DODGE *   CLOUDY    41  36  81 E29       30.01F
MASON CITY     LGT RAIN  42  37  82 E21G31    30.12F
FOREST CITY *  LGT RAIN  41  37  87 E16G28    30.12S
WEBSTER CITY * RAIN      41  39  93 E32G39    29.97F
IOWA FALLS *   LGT RAIN  42  39  90 NE20G32   30.05S
$$

IAZ007>011-017>019-026>030-037>042-050>054-066-292100-
   NORTHEAST IOWA

CITY           SKY/WX    TMP DP  RH WIND       PRES   REMARKS
CEDAR RAPIDS   LGT RAIN  44  41  89 E18G29    30.01F
CHARLES CITY * LGT RAIN  43  39  87 E18G25    30.12F
CLINTON *      CLOUDY    49  37  63 E20G32    30.05F
DECORAH *      CLOUDY    45  36  70 NE12G20   30.13F
DUBUQUE        CLOUDY    46  36  68 NE21G26   30.08F
MONTICELLO *   CLOUDY    46  36  66 E13G23    30.05F
OELWEIN *      LGT RAIN  43  39  87 E20G29    30.07F
WATERLOO       CLOUDY    44  37  76 NE17      30.06F
$$

IAZ064-065-067-068-078-292100-
   EAST CENTRAL IOWA

CITY           SKY/WX    TMP DP  RH WIND       PRES   REMARKS
DAVENPORT      CLOUDY    48  39  71 E25G35    30.03F
IOWA CITY      RAIN      47  42  83 E16G26    30.01F
MUSCATINE *    CLOUDY    48  43  81 E17G26    30.00F
QUAD CITIES    CLOUDY    49  41  74 E23       30.02F
$$

IAZ062-063-075>077-085>089-095>099-292100-
   SOUTHEAST IOWA

CITY           SKY/WX    TMP DP  RH WIND       PRES   REMARKS
BURLINGTON     LGT RAIN  48  47  96 E18G28    29.93F
FAIRFIELD *    CLOUDY    46  46 100 E16G26    29.92F FOG
FORT MADISON * LGT RAIN  48  46  93 E21G30    29.92F
KEOKUK *       CLOUDY    48  46  93 E24G31    29.88F
OSKALOOSA *    LGT RAIN  45  44  96 E22G29    29.90F
CENTERVILLE *  LGT RAIN  48  46  93 E16G24    29.84F
OTTUMWA        LGT RAIN  47  47 100 E21G29    29.90F FOG
WASHINGTON *   CLOUDY    46  46 100 E21G28    29.96F FOG
$$

ABBREVIATIONS USED IN REMARKS
   TC - TEMPERATURES IN CELSIUS
  WCI - WIND CHILL INDEX
   HX - HEAT INDEX
  VSB - VISIBILITY
$$





USA.gov is the U.S. government's official web portal to all federal, state and local government web resources and services.